Weather History for KCAK - November, 2012

Change the Weather History Date:

Thursday, November 1, 2012

  Actual Average Record
Temperature  
Mean Temperature 38 °F 47 °F  
Max Temperature 41 °F 55 °F 79 °F (1950)
Min Temperature 35 °F 38 °F 25 °F (1954)
Degree Days  
Heating Degree Days 27 18  
Month to date heating degree days 27 18  
Since 1 July heating degree days 562 573  
Cooling Degree Days 0 0  
Month to date cooling degree days 0 0  
Year to date cooling degree days 1046 652  
Moisture  
Dew Point 35 °F    
Average Humidity 82    
Maximum Humidity 85    
Minimum Humidity 79    
Precipitation  
Precipitation 0.05 in 0.11 in 1.13 in (1969)
Month to date precipitation 0.05 0.11  
Year to date precipitation 33.02 33.59  
Snow  
Snow 0.00 in 0.00 in - ()
Month to date snowfall 0.0 0.0  
Since 1 July snowfall T 0.4  
Since 1 September snowfall T 0.4  
Snow Depth 0.00 in    
Sea Level Pressure  
Sea Level Pressure 29.72 in    
Wind  
Wind Speed 10 mph (West)    
Max Wind Speed 18 mph    
Max Gust Speed 22 mph    
Visibility 5 miles    
Events Rain    
T = Trace of Precipitation, MM = Missing Value Source: NWS Daily Summary

Daily Weather History Graph

Daily Weather History Graph

Search for Another Location

Airport or City:

Trip Planner

Search our weather history database for the weather conditions in past years. The results will help you decide how hot, cold, wet, or windy it might be!

Date:

Astronomy

Nov. 01, 2012 Rise Set
Actual Time 7:56 AM EDT 6:21 PM EDT
Civil Twilight 7:28 AM EDT 6:49 PM EDT
Nautical Twilight 6:55 AM EDT 7:22 PM EDT
Astronomical Twilight 6:23 AM EDT 7:54 PM EDT
Moon 8:16 PM EDT (11/1) 10:29 AM EDT (11/1)
Length of Visible Light 11h 21m
Length of Day
10h 24m
Waning Gibbous, 93% of the Moon is Illuminated
Nov 1
Waning Gibbous
Nov 6
Last Quarter
Nov 13
New
Nov 20
First Quarter
Nov 28
Full

Hourly Weather History & Observations

Time (EDT) Temp. Windchill Dew Point Humidity Pressure Visibility Wind Dir Wind Speed Gust Speed Precip Events Conditions
12:51 AM 39.0 °F 31.4 °F 36.0 °F 89% 29.66 in 3.0 mi West 12.7 mph - 0.00 in Rain Light Rain
1:51 AM 39.0 °F 31.4 °F 36.0 °F 89% 29.66 in 4.0 mi West 12.7 mph - 0.01 in Rain Light Rain
2:51 AM 39.0 °F 32.3 °F 36.0 °F 89% 29.66 in 3.0 mi West 10.4 mph - 0.02 in Rain Light Rain
3:51 AM 39.0 °F 31.8 °F 36.0 °F 89% 29.67 in 3.0 mi West 11.5 mph - 0.00 in Rain Light Rain
4:51 AM 39.0 °F 31.8 °F 36.0 °F 89% 29.67 in 3.0 mi West 11.5 mph - 0.00 in Rain Light Rain
5:51 AM 39.0 °F 31.0 °F 36.0 °F 89% 29.67 in 3.0 mi West 13.8 mph - 0.01 in Rain Light Rain
6:29 AM 39.2 °F 31.2 °F 35.6 °F 87% 29.66 in 2.0 mi West 13.8 mph 19.6 mph 0.00 in Rain Light Rain
6:51 AM 39.0 °F 31.8 °F 36.0 °F 89% 29.68 in 2.0 mi West 11.5 mph - 0.01 in Rain Light Rain
7:51 AM 39.0 °F 30.6 °F 36.0 °F 89% 29.69 in 2.0 mi West 15.0 mph - 0.00 in Rain Light Rain
8:51 AM 39.0 °F 31.4 °F 36.0 °F 89% 29.71 in 2.0 mi West 12.7 mph - 0.00 in Rain Light Rain
9:00 AM 39.2 °F 33.0 °F 35.6 °F 87% 29.69 in 4.0 mi West 9.2 mph - 0.00 in Rain Light Rain
9:51 AM 39.0 °F 31.8 °F 36.0 °F 89% 29.72 in 2.0 mi West 11.5 mph - 0.00 in Rain Light Rain
10:51 AM 39.9 °F 33.4 °F 36.0 °F 86% 29.73 in 2.0 mi West 10.4 mph 19.6 mph 0.00 in   Overcast
11:51 AM 39.9 °F 32.5 °F 36.0 °F 86% 29.73 in 2.0 mi West 12.7 mph - 0.00 in Rain Light Rain
12:24 PM 39.2 °F 31.6 °F 35.6 °F 87% 29.72 in 7.0 mi West 12.7 mph - 0.00 in Rain Light Rain
12:51 PM 39.9 °F 33.4 °F 36.0 °F 86% 29.73 in 7.0 mi WNW 10.4 mph - 0.00 in Rain Light Rain
1:51 PM 39.9 °F 33.9 °F 35.1 °F 83% 29.73 in 6.0 mi West 9.2 mph - 0.00 in   Overcast
2:51 PM 39.9 °F 32.9 °F 34.0 °F 79% 29.73 in 8.0 mi West 11.5 mph 21.9 mph N/A   Overcast
3:51 PM 39.9 °F 34.5 °F 33.1 °F 77% 29.73 in 8.0 mi West 8.1 mph - N/A   Overcast
4:51 PM 39.0 °F 31.4 °F 33.1 °F 79% 29.75 in 7.0 mi West 12.7 mph - N/A   Overcast
5:51 PM 37.9 °F 32.1 °F 33.1 °F 83% 29.76 in 7.0 mi WSW 8.1 mph - 0.00 in   Mostly Cloudy
6:27 PM 37.4 °F 33.8 °F 33.8 °F 87% 29.74 in 7.0 mi SW 4.6 mph - N/A   Mostly Cloudy
6:51 PM 35.1 °F 31.0 °F 30.9 °F 85% 29.77 in 7.0 mi SSW 4.6 mph - N/A   Mostly Cloudy
7:51 PM 37.0 °F 32.4 °F 33.1 °F 86% 29.78 in 7.0 mi South 5.8 mph - N/A   Overcast
8:51 PM 37.0 °F 32.4 °F 32.0 °F 82% 29.77 in 8.0 mi SSW 5.8 mph - N/A   Overcast
9:51 PM 37.0 °F 32.4 °F 32.0 °F 82% 29.77 in 8.0 mi SW 5.8 mph - N/A   Overcast
10:51 PM 37.0 °F 32.4 °F 32.0 °F 82% 29.77 in 8.0 mi WSW 5.8 mph - N/A   Overcast
11:51 PM 37.9 °F 32.7 °F 32.0 °F 79% 29.77 in 8.0 mi West 6.9 mph - N/A   Overcast